Time,TemperatureF,DewpointF,PressureIn,WindDirection,WindDirectionDegrees,WindSpeedMPH,WindSpeedGustMPH,Humidity,HourlyPrecipIn,Conditions,Clouds,dailyrainin,SolarRadiationWatts/m^2,SoftwareType,DateUTC
2013-06-09 00:04:00,64.7,62.0,30.10,WSW,246,0.0,1.0,91,0.00,CLR,CLR,0.00,0.0,WeatherDisplay:10.37,2013-06-09 04:04:00,
2013-06-09 00:09:00,64.3,61.9,30.10,WSW,246,0.0,0.0,92,0.00,CLR,CLR,0.00,0.0,WeatherDisplay:10.37,2013-06-09 04:09:00,
2013-06-09 00:19:00,63.8,61.4,30.10,WSW,246,0.0,0.0,92,0.00,CLR,CLR,0.00,0.0,WeatherDisplay:10.37,2013-06-09 04:19:00,
2013-06-09 00:24:00,63.5,61.2,30.10,WSW,246,0.0,0.0,92,0.00,CLR,CLR,0.00,0.0,WeatherDisplay:10.37,2013-06-09 04:24:00,
2013-06-09 00:29:00,63.3,61.3,30.10,WSW,246,0.0,0.0,93,0.00,CLR,CLR,0.00,0.0,WeatherDisplay:10.37,2013-06-09 04:29:00,
2013-06-09 00:34:00,63.1,61.1,30.10,WSW,246,0.0,0.0,93,0.00,CLR,CLR,0.00,0.0,WeatherDisplay:10.37,2013-06-09 04:34:00,
2013-06-09 00:44:00,62.7,60.6,30.11,WSW,246,0.0,0.0,93,0.00,CLR,CLR,0.00,0.0,WeatherDisplay:10.37,2013-06-09 04:44:00,
2013-06-09 00:54:00,62.4,60.7,30.11,WSW,246,0.0,0.0,94,0.00,CLR,CLR,0.00,0.0,WeatherDisplay:10.37,2013-06-09 04:54:00,
2013-06-09 00:59:00,62.3,60.6,30.11,WSW,246,0.0,0.0,94,0.00,CLR,CLR,0.00,0.0,WeatherDisplay:10.37,2013-06-09 04:59:00,
2013-06-09 01:04:00,62.2,60.5,30.11,WSW,246,0.0,0.0,94,0.00,CLR,CLR,0.00,0.0,WeatherDisplay:10.37,2013-06-09 05:04:00,
2013-06-09 01:14:00,61.9,60.2,30.11,WSW,246,0.0,0.0,94,0.00,CLR,CLR,0.00,0.0,WeatherDisplay:10.37,2013-06-09 05:14:00,
2013-06-09 01:19:00,61.7,60.3,30.11,WSW,246,0.0,0.0,95,0.00,CLR,CLR,0.00,0.0,WeatherDisplay:10.37,2013-06-09 05:19:00,
2013-06-09 01:29:00,61.4,59.7,30.11,WSW,246,0.0,0.0,94,0.00,CLR,CLR,0.00,0.0,WeatherDisplay:10.37,2013-06-09 05:29:00,
2013-06-09 01:39:00,61.1,59.7,30.11,WSW,246,0.0,0.0,95,0.00,CLR,CLR,0.00,0.0,WeatherDisplay:10.37,2013-06-09 05:39:00,
2013-06-09 01:44:00,61.0,59.6,30.11,WSW,246,0.0,0.0,95,0.00,CLR,CLR,0.00,0.0,WeatherDisplay:10.37,2013-06-09 05:44:00,
2013-06-09 01:49:00,60.9,59.5,30.11,WSW,246,0.0,0.0,95,0.00,CLR,CLR,0.00,0.0,WeatherDisplay:10.37,2013-06-09 05:49:00,
2013-06-09 01:59:00,60.7,59.3,30.11,WSW,246,0.0,2.0,95,0.00,CLR,CLR,0.00,0.0,WeatherDisplay:10.37,2013-06-09 05:59:00,
2013-06-09 02:04:00,60.7,59.5,30.11,WSW,246,0.0,0.0,96,0.00,CLR,CLR,0.00,0.0,WeatherDisplay:10.37,2013-06-09 06:04:00,
2013-06-09 02:09:00,60.6,59.5,30.11,WSW,246,0.0,0.0,96,0.00,CLR,CLR,0.00,0.0,WeatherDisplay:10.37,2013-06-09 06:09:00,
2013-06-09 02:14:00,60.6,59.5,30.11,WSW,246,0.0,1.0,96,0.00,CLR,CLR,0.00,0.0,WeatherDisplay:10.37,2013-06-09 06:14:00,
2013-06-09 02:19:00,60.4,59.0,30.11,WSW,246,0.0,1.0,95,0.00,CLR,CLR,0.00,0.0,WeatherDisplay:10.37,2013-06-09 06:19:00,
2013-06-09 02:24:00,60.3,58.9,30.11,WSW,246,0.0,1.0,95,0.00,CLR,CLR,0.00,0.0,WeatherDisplay:10.37,2013-06-09 06:24:00,
2013-06-09 02:29:00,60.2,59.1,30.10,WSW,246,0.0,1.0,96,0.00,CLR,CLR,0.00,0.0,WeatherDisplay:10.37,2013-06-09 06:29:00,
2013-06-09 02:34:00,60.2,59.0,30.10,WSW,246,0.0,0.0,96,0.00,CLR,CLR,0.00,0.0,WeatherDisplay:10.37,2013-06-09 06:34:00,
2013-06-09 02:39:00,60.0,58.9,30.10,WSW,246,0.0,0.0,96,0.00,CLR,CLR,0.00,0.0,WeatherDisplay:10.37,2013-06-09 06:39:00,
2013-06-09 02:44:00,59.8,58.7,30.10,WSW,246,0.0,0.0,96,0.00,CLR,CLR,0.00,0.0,WeatherDisplay:10.37,2013-06-09 06:44:00,
2013-06-09 02:49:00,59.8,58.7,30.10,WSW,246,0.0,0.0,96,0.00,CLR,CLR,0.00,0.0,WeatherDisplay:10.37,2013-06-09 06:49:00,
2013-06-09 02:54:00,59.7,58.6,30.10,WSW,246,0.0,0.0,96,0.00,CLR,CLR,0.00,0.0,WeatherDisplay:10.37,2013-06-09 06:54:00,
2013-06-09 02:59:00,59.8,58.7,30.10,WSW,246,0.0,0.0,96,0.00,CLR,CLR,0.00,0.0,WeatherDisplay:10.37,2013-06-09 06:59:00,
2013-06-09 03:04:00,59.9,58.8,30.10,WSW,246,0.0,0.0,96,0.00,CLR,CLR,0.00,0.0,WeatherDisplay:10.37,2013-06-09 07:04:00,
2013-06-09 03:09:00,60.0,58.9,30.10,WSW,246,0.0,0.0,96,0.00,CLR,CLR,0.00,0.0,WeatherDisplay:10.37,2013-06-09 07:09:00,
2013-06-09 03:19:00,59.8,58.7,30.10,WSW,246,0.0,2.0,96,0.00,CLR,CLR,0.00,0.0,WeatherDisplay:10.37,2013-06-09 07:19:00,
2013-06-09 03:24:00,59.6,58.5,30.10,WSW,246,1.0,2.0,96,0.00,CLR,CLR,0.00,0.0,WeatherDisplay:10.37,2013-06-09 07:24:00,
2013-06-09 03:34:00,59.5,58.4,30.11,WSW,246,0.0,0.0,96,0.00,CLR,CLR,0.00,0.0,WeatherDisplay:10.37,2013-06-09 07:34:00,
2013-06-09 03:39:00,59.5,58.4,30.11,WSW,246,0.0,0.0,96,0.00,CLR,CLR,0.00,0.0,WeatherDisplay:10.37,2013-06-09 07:39:00,
2013-06-09 03:44:00,59.5,58.4,30.10,WSW,246,0.0,0.0,96,0.00,CLR,CLR,0.00,0.0,WeatherDisplay:10.37,2013-06-09 07:44:00,
2013-06-09 03:54:00,59.5,58.4,30.10,WSW,246,0.0,1.0,96,0.00,CLR,CLR,0.00,0.0,WeatherDisplay:10.37,2013-06-09 07:54:00,
2013-06-09 03:59:00,59.5,58.4,30.10,WSW,246,0.0,2.0,96,0.00,CLR,CLR,0.00,0.0,WeatherDisplay:10.37,2013-06-09 07:59:00,
2013-06-09 04:04:00,59.5,58.3,30.10,WSW,246,0.0,0.0,96,0.00,CLR,CLR,0.00,0.0,WeatherDisplay:10.37,2013-06-09 08:04:00,
2013-06-09 04:09:00,59.4,58.3,30.10,WSW,246,0.0,0.0,96,0.00,CLR,CLR,0.00,0.0,WeatherDisplay:10.37,2013-06-09 08:09:00,
2013-06-09 04:14:00,59.4,58.3,30.10,WSW,246,0.0,0.0,96,0.00,CLR,CLR,0.00,0.0,WeatherDisplay:10.37,2013-06-09 08:14:00,
2013-06-09 04:19:00,59.5,58.3,30.11,WSW,246,0.0,0.0,96,0.00,CLR,CLR,0.00,0.0,WeatherDisplay:10.37,2013-06-09 08:19:00,
2013-06-09 04:29:00,59.5,58.3,30.11,WSW,246,0.0,0.0,96,0.00,CLR,CLR,0.00,0.0,WeatherDisplay:10.37,2013-06-09 08:29:00,
2013-06-09 04:39:00,59.4,58.3,30.11,WSW,246,0.0,0.0,96,0.00,CLR,CLR,0.00,0.0,WeatherDisplay:10.37,2013-06-09 08:39:00,
2013-06-09 04:44:00,59.4,58.3,30.11,WSW,246,0.0,0.0,96,0.00,CLR,CLR,0.00,0.0,WeatherDisplay:10.37,2013-06-09 08:44:00,
2013-06-09 04:49:00,59.2,58.1,30.11,WSW,246,0.0,0.0,96,0.00,CLR,CLR,0.00,0.0,WeatherDisplay:10.37,2013-06-09 08:49:00,
2013-06-09 04:54:00,59.0,57.9,30.11,WSW,246,0.0,0.0,96,0.00,CLR,CLR,0.00,0.0,WeatherDisplay:10.37,2013-06-09 08:54:00,
2013-06-09 04:59:00,59.0,57.9,30.11,WSW,246,0.0,0.0,96,0.00,CLR,CLR,0.00,0.0,WeatherDisplay:10.37,2013-06-09 08:59:00,
2013-06-09 05:09:00,59.0,57.9,30.11,WSW,246,0.0,0.0,96,0.00,CLR,CLR,0.00,0.0,WeatherDisplay:10.37,2013-06-09 09:09:00,
2013-06-09 05:14:00,59.0,57.9,30.11,WSW,246,0.0,0.0,96,0.00,CLR,CLR,0.00,0.0,WeatherDisplay:10.37,2013-06-09 09:14:00,
2013-06-09 05:24:00,59.0,57.9,30.12,WSW,246,0.0,0.0,96,0.00,CLR,CLR,0.00,0.0,WeatherDisplay:10.37,2013-06-09 09:24:00,
2013-06-09 05:34:00,59.0,57.8,30.12,WSW,246,0.0,0.0,96,0.00,CLR,CLR,0.00,0.0,WeatherDisplay:10.37,2013-06-09 09:34:00,
2013-06-09 05:39:00,58.9,57.8,30.12,WSW,246,0.0,0.0,96,0.00,CLR,CLR,0.00,0.0,WeatherDisplay:10.37,2013-06-09 09:39:00,
2013-06-09 05:44:00,58.8,57.7,30.12,WSW,246,0.0,0.0,96,0.00,CLR,CLR,0.00,0.0,WeatherDisplay:10.37,2013-06-09 09:44:00,
2013-06-09 05:49:00,58.8,57.6,30.12,WSW,246,0.0,0.0,96,0.00,CLR,CLR,0.00,0.0,WeatherDisplay:10.37,2013-06-09 09:49:00,
2013-06-09 05:54:00,58.7,57.6,30.12,WSW,246,0.0,0.0,96,0.00,CLR,CLR,0.00,0.0,WeatherDisplay:10.37,2013-06-09 09:54:00,
2013-06-09 05:59:00,58.7,57.6,30.12,WSW,246,0.0,0.0,96,0.00,OVC,OVC,0.00,0.0,WeatherDisplay:10.37,2013-06-09 09:59:00,
2013-06-09 06:09:00,58.4,57.3,30.13,WSW,246,0.0,0.0,96,0.00,OVC,OVC,0.00,0.0,WeatherDisplay:10.37,2013-06-09 10:09:00,
2013-06-09 06:14:00,58.3,57.2,30.13,WSW,246,0.0,0.0,96,0.00,OVC,OVC,0.00,0.0,WeatherDisplay:10.37,2013-06-09 10:14:00,
2013-06-09 06:19:00,58.3,57.2,30.14,WSW,246,0.0,0.0,96,0.00,CLR,CLR,0.00,5.0,WeatherDisplay:10.37,2013-06-09 10:19:00,
2013-06-09 06:24:00,58.4,57.3,30.14,WSW,246,0.0,0.0,96,0.00,SCT,SCT,0.00,11.0,WeatherDisplay:10.37,2013-06-09 10:24:00,
2013-06-09 06:29:00,58.4,57.3,30.14,WSW,246,0.0,0.0,96,0.00,BKN,BKN,0.00,12.0,WeatherDisplay:10.37,2013-06-09 10:29:00,
2013-06-09 06:34:00,58.5,57.4,30.14,WSW,247,0.0,0.0,96,0.00,BKN,BKN,0.00,16.0,WeatherDisplay:10.37,2013-06-09 10:34:00,
2013-06-09 06:39:00,58.6,57.5,30.14,WSW,250,0.0,0.0,96,0.00,BKN,BKN,0.00,23.0,WeatherDisplay:10.37,2013-06-09 10:39:00,
2013-06-09 06:44:00,58.7,57.9,30.14,WSW,253,0.0,0.0,97,0.00,SCT,SCT,0.00,39.0,WeatherDisplay:10.37,2013-06-09 10:44:00,
2013-06-09 06:49:00,59.0,58.2,30.14,WSW,253,0.0,0.0,97,0.00,SCT,SCT,0.00,44.0,WeatherDisplay:10.37,2013-06-09 10:49:00,
2013-06-09 06:54:00,59.0,58.2,30.14,WSW,253,0.0,0.0,97,0.00,BKN,BKN,0.00,40.0,WeatherDisplay:10.37,2013-06-09 10:54:00,
2013-06-09 06:59:00,59.1,58.2,30.14,WSW,253,1.0,2.0,97,0.00,BKN,BKN,0.00,49.0,WeatherDisplay:10.37,2013-06-09 10:59:00,
2013-06-09 07:04:00,59.1,58.0,30.14,WSW,253,0.0,1.0,96,0.00,SCT,SCT,0.00,63.0,WeatherDisplay:10.37,2013-06-09 11:04:00,
2013-06-09 07:14:00,59.5,58.7,30.15,WSW,253,0.0,1.0,97,0.00,OVC,OVC,0.00,25.0,WeatherDisplay:10.37,2013-06-09 11:14:00,
2013-06-09 07:19:00,59.8,58.6,30.14,WSW,253,0.0,0.0,96,0.00,OVC,OVC,0.00,23.0,WeatherDisplay:10.37,2013-06-09 11:19:00,
2013-06-09 07:24:00,59.9,58.8,30.14,WSW,253,0.0,0.0,96,0.00,OVC,OVC,0.00,26.0,WeatherDisplay:10.37,2013-06-09 11:24:00,
2013-06-09 07:29:00,60.1,58.9,30.14,WSW,253,0.0,0.0,96,0.00,OVC,OVC,0.00,42.0,WeatherDisplay:10.37,2013-06-09 11:29:00,
2013-06-09 07:39:00,60.4,59.3,30.15,WSW,252,0.0,1.0,96,0.00,OVC,OVC,0.00,72.0,WeatherDisplay:10.37,2013-06-09 11:39:00,
2013-06-09 07:44:00,60.6,59.4,30.15,WSW,243,0.0,1.0,96,0.00,SCT,SCT,0.00,130.0,WeatherDisplay:10.37,2013-06-09 11:44:00,
2013-06-09 07:49:00,60.8,59.6,30.15,SW,236,0.0,0.0,96,0.00,SCT,SCT,0.00,169.0,WeatherDisplay:10.37,2013-06-09 11:49:00,
2013-06-09 07:59:00,61.6,60.4,30.15,SW,236,0.0,0.0,96,0.00,OVC,OVC,0.00,56.0,WeatherDisplay:10.37,2013-06-09 11:59:00,
2013-06-09 08:04:00,61.8,60.6,30.15,SW,236,0.0,1.0,96,0.00,OVC,OVC,0.00,54.0,WeatherDisplay:10.37,2013-06-09 12:04:00,
2013-06-09 08:09:00,61.9,60.8,30.15,SW,236,0.0,2.0,96,0.00,OVC,OVC,0.00,70.0,WeatherDisplay:10.37,2013-06-09 12:09:00,
2013-06-09 08:19:00,62.3,60.8,30.15,SW,236,0.0,0.0,95,0.00,SCT,SCT,0.00,197.0,WeatherDisplay:10.37,2013-06-09 12:19:00,
2013-06-09 08:24:00,63.2,62.1,30.15,SW,236,0.0,0.0,96,0.00,CLR,CLR,0.00,366.0,WeatherDisplay:10.37,2013-06-09 12:24:00,
2013-06-09 08:29:00,64.4,62.9,30.15,SW,236,0.0,0.0,95,0.00,CLR,CLR,0.00,381.0,WeatherDisplay:10.37,2013-06-09 12:29:00,
2013-06-09 08:34:00,65.6,63.6,30.15,SW,236,0.0,0.0,93,0.00,CLR,CLR,0.00,381.0,WeatherDisplay:10.37,2013-06-09 12:34:00,
2013-06-09 08:39:00,66.7,64.0,30.15,SW,236,1.0,3.0,91,0.00,CLR,CLR,0.00,429.0,WeatherDisplay:10.37,2013-06-09 12:39:00,
2013-06-09 08:49:00,68.2,64.5,30.14,SW,236,0.0,2.0,88,0.00,CLR,CLR,0.00,466.0,WeatherDisplay:10.37,2013-06-09 12:49:00,
2013-06-09 08:54:00,69.2,64.8,30.14,SW,236,0.0,1.0,86,0.00,FEW,FEW,0.00,392.0,WeatherDisplay:10.37,2013-06-09 12:54:00,
2013-06-09 08:59:00,70.2,65.8,30.14,SW,236,0.0,1.0,86,0.00,FEW,FEW,0.00,387.0,WeatherDisplay:10.37,2013-06-09 12:59:00,
2013-06-09 09:04:00,71.0,65.6,30.14,SW,222,1.0,3.0,83,0.00,CLR,CLR,0.00,501.0,WeatherDisplay:10.37,2013-06-09 13:04:00,
2013-06-09 09:09:00,70.8,64.7,30.15,SSE,155,1.0,3.0,81,0.00,CLR,CLR,0.00,550.0,WeatherDisplay:10.37,2013-06-09 13:09:00,
2013-06-09 09:19:00,71.1,64.6,30.15,SE,130,0.0,2.0,80,0.00,FEW,FEW,0.00,468.0,WeatherDisplay:10.37,2013-06-09 13:19:00,
2013-06-09 09:29:00,71.0,64.5,30.15,SE,130,3.0,4.0,80,0.00,BKN,BKN,0.00,281.0,WeatherDisplay:10.37,2013-06-09 13:29:00,
2013-06-09 09:39:00,70.7,65.3,30.14,ESE,121,2.0,6.0,83,0.00,SCT,SCT,0.00,455.0,WeatherDisplay:10.37,2013-06-09 13:39:00,
2013-06-09 09:49:00,70.4,65.4,30.14,East,93,0.0,3.0,84,0.00,OVC,OVC,0.00,257.0,WeatherDisplay:10.37,2013-06-09 13:49:00,
2013-06-09 09:54:00,70.4,65.4,30.14,East,99,2.0,4.0,84,0.00,BKN,BKN,0.00,387.0,WeatherDisplay:10.37,2013-06-09 13:54:00,
2013-06-09 09:59:00,70.8,66.0,30.14,East,100,0.0,3.0,85,0.00,CLR,CLR,0.00,691.0,WeatherDisplay:10.37,2013-06-09 13:59:00,
2013-06-09 10:04:00,71.5,66.0,30.14,SE,130,0.0,4.0,83,0.00,BKN,BKN,0.00,357.0,WeatherDisplay:10.37,2013-06-09 14:04:00,
2013-06-09 10:09:00,71.7,65.9,30.14,SSW,197,0.0,7.0,82,0.00,CLR,CLR,0.00,745.0,WeatherDisplay:10.37,2013-06-09 14:09:00,
2013-06-09 10:19:00,72.4,65.5,30.14,SW,218,5.0,7.0,79,0.00,BKN,BKN,0.00,357.0,WeatherDisplay:10.37,2013-06-09 14:19:00,
2013-06-09 10:29:00,71.0,64.9,30.13,South,186,1.0,10.0,81,0.00,OVC,OVC,0.00,206.0,WeatherDisplay:10.37,2013-06-09 14:29:00,
2013-06-09 10:34:00,70.4,65.0,30.13,South,176,2.0,8.0,83,0.00,OVC,OVC,0.00,213.0,WeatherDisplay:10.37,2013-06-09 14:34:00,
2013-06-09 10:44:00,71.8,66.0,30.13,SSW,213,1.0,5.0,82,0.00,FEW,FEW,0.00,824.0,WeatherDisplay:10.37,2013-06-09 14:44:00,
2013-06-09 10:49:00,72.4,65.9,30.13,ESE,121,0.0,4.0,80,0.00,FEW,FEW,0.00,809.0,WeatherDisplay:10.37,2013-06-09 14:49:00,
2013-06-09 10:59:00,73.1,66.2,30.13,ESE,111,1.0,7.0,79,0.00,CLR,CLR,0.00,962.0,WeatherDisplay:10.37,2013-06-09 14:59:00,
2013-06-09 11:04:00,72.9,66.0,30.13,SSW,203,0.0,9.0,79,0.00,OVC,OVC,0.00,294.0,WeatherDisplay:10.37,2013-06-09 15:04:00,
2013-06-09 11:09:00,72.8,66.3,30.13,South,188,1.0,7.0,80,0.00,OVC,OVC,0.00,272.0,WeatherDisplay:10.37,2013-06-09 15:09:00,
2013-06-09 11:19:00,72.5,66.0,30.13,SW,233,5.0,7.0,80,0.00,OVC,OVC,0.00,237.0,WeatherDisplay:10.37,2013-06-09 15:19:00,
2013-06-09 11:29:00,71.5,66.7,30.13,WSW,250,2.0,6.0,85,0.03,RA,RA,0.03,128.0,WeatherDisplay:10.37,2013-06-09 15:29:00,
2013-06-09 11:39:00,69.9,66.5,30.13,WSW,238,0.0,2.0,89,0.00,RA,RA,0.07,255.0,WeatherDisplay:10.37,2013-06-09 15:39:00,
2013-06-09 11:44:00,69.7,67.0,30.13,SW,233,0.0,3.0,91,0.00,RA,RA,0.07,295.0,WeatherDisplay:10.37,2013-06-09 15:44:00,
2013-06-09 11:49:00,69.7,67.0,30.13,SW,233,0.0,4.0,91,0.00,RA,RA,0.07,424.0,WeatherDisplay:10.37,2013-06-09 15:49:00,
2013-06-09 11:59:00,70.7,67.9,30.12,SW,233,3.0,5.0,91,0.00,RA,RA,0.07,967.0,WeatherDisplay:10.37,2013-06-09 15:59:00,
2013-06-09 12:04:00,71.3,68.5,30.12,SW,233,2.0,5.0,91,0.00,RA,RA,0.07,1018.0,WeatherDisplay:10.37,2013-06-09 16:04:00,
2013-06-09 12:14:00,72.5,68.7,30.12,WSW,245,3.0,10.0,88,0.00,RA,RA,0.07,413.0,WeatherDisplay:10.37,2013-06-09 16:14:00,
2013-06-09 12:24:00,72.9,67.8,30.11,SW,236,3.0,6.0,84,0.00,RA,RA,0.07,454.0,WeatherDisplay:10.37,2013-06-09 16:24:00,
2013-06-09 12:29:00,72.7,67.2,30.11,WSW,242,3.0,9.0,83,0.00,RA,RA,0.07,218.0,WeatherDisplay:10.37,2013-06-09 16:29:00,
2013-06-09 12:34:00,72.5,67.4,30.11,WSW,248,5.0,10.0,84,0.00,RA,RA,0.07,570.0,WeatherDisplay:10.37,2013-06-09 16:34:00,
2013-06-09 12:44:00,73.2,68.4,30.11,SW,236,2.0,6.0,85,0.00,RA,RA,0.07,1243.0,WeatherDisplay:10.37,2013-06-09 16:44:00,
2013-06-09 12:49:00,73.5,67.3,30.11,SSW,207,2.0,7.0,81,0.00,RA,RA,0.07,1243.0,WeatherDisplay:10.37,2013-06-09 16:49:00,
2013-06-09 12:59:00,73.2,67.0,30.10,WSW,239,1.0,12.0,81,0.00,RA,RA,0.07,1081.0,WeatherDisplay:10.37,2013-06-09 16:59:00,
2013-06-09 13:04:00,73.6,66.7,30.09,WSW,257,1.0,9.0,79,0.00,RA,RA,0.07,1035.0,WeatherDisplay:10.37,2013-06-09 17:04:00,
2013-06-09 13:09:00,73.8,67.2,30.09,WSW,243,1.0,9.0,80,0.00,RA,RA,0.07,1083.0,WeatherDisplay:10.37,2013-06-09 17:09:00,
2013-06-09 13:19:00,75.2,67.9,30.08,South,177,1.0,10.0,78,0.00,RA,RA,0.07,1153.0,WeatherDisplay:10.37,2013-06-09 17:19:00,
2013-06-09 13:24:00,75.9,67.0,30.08,SSW,208,3.0,9.0,74,0.00,RA,RA,0.07,1238.0,WeatherDisplay:10.37,2013-06-09 17:24:00,
2013-06-09 13:29:00,75.8,66.5,30.08,WSW,258,1.0,9.0,73,0.00,RA,RA,0.07,1197.0,WeatherDisplay:10.37,2013-06-09 17:29:00,
2013-06-09 13:39:00,76.8,67.1,30.08,WSW,243,3.0,10.0,72,0.00,RA,RA,0.07,290.0,WeatherDisplay:10.37,2013-06-09 17:39:00,
2013-06-09 13:44:00,75.8,67.3,30.08,SW,233,1.0,6.0,75,0.00,RA,RA,0.07,269.0,WeatherDisplay:10.37,2013-06-09 17:44:00,
2013-06-09 13:49:00,75.0,66.9,30.07,SSW,204,1.0,4.0,76,0.00,RA,RA,0.07,1179.0,WeatherDisplay:10.37,2013-06-09 17:49:00,
2013-06-09 13:54:00,74.7,67.4,30.07,ESE,122,0.0,5.0,78,0.00,RA,RA,0.07,1095.0,WeatherDisplay:10.37,2013-06-09 17:54:00,
2013-06-09 13:59:00,75.2,67.1,30.07,SSE,149,1.0,6.0,76,0.00,RA,RA,0.07,276.0,WeatherDisplay:10.37,2013-06-09 17:59:00,
2013-06-09 14:04:00,75.5,67.8,30.07,SSW,204,0.0,4.0,77,0.00,RA,RA,0.07,309.0,WeatherDisplay:10.37,2013-06-09 18:04:00,
2013-06-09 14:09:00,75.7,66.8,30.06,SW,228,3.0,12.0,74,0.00,RA,RA,0.07,338.0,WeatherDisplay:10.37,2013-06-09 18:09:00,
2013-06-09 14:19:00,75.7,66.8,30.06,WSW,240,3.0,12.0,74,0.00,RA,RA,0.07,471.0,WeatherDisplay:10.37,2013-06-09 18:19:00,
2013-06-09 14:24:00,76.1,66.8,30.06,SSW,211,1.0,9.0,73,0.00,RA,RA,0.07,851.0,WeatherDisplay:10.37,2013-06-09 18:24:00,
2013-06-09 14:29:00,76.0,66.7,30.06,SW,232,1.0,12.0,73,0.00,RA,RA,0.07,343.0,WeatherDisplay:10.37,2013-06-09 18:29:00,
2013-06-09 14:39:00,76.6,68.0,30.05,ESE,114,3.0,7.0,75,0.00,RA,RA,0.07,257.0,WeatherDisplay:10.37,2013-06-09 18:39:00,
2013-06-09 14:49:00,75.3,67.6,30.05,ENE,68,2.0,7.0,77,0.00,RA,RA,0.07,381.0,WeatherDisplay:10.37,2013-06-09 18:49:00,
2013-06-09 14:54:00,74.9,66.4,30.05,East,99,5.0,13.0,75,0.00,RA,RA,0.07,332.0,WeatherDisplay:10.37,2013-06-09 18:54:00,
2013-06-09 14:59:00,75.4,67.3,30.04,SE,134,1.0,5.0,76,0.00,RA,RA,0.07,387.0,WeatherDisplay:10.37,2013-06-09 18:59:00,
2013-06-09 15:04:00,75.8,67.3,30.04,ESE,105,0.0,5.0,75,0.00,RA,RA,0.07,323.0,WeatherDisplay:10.37,2013-06-09 19:04:00,
2013-06-09 15:09:00,75.6,67.1,30.04,East,99,0.0,7.0,75,0.00,RA,RA,0.07,972.0,WeatherDisplay:10.37,2013-06-09 19:09:00,
2013-06-09 15:19:00,75.7,67.2,30.04,East,83,1.0,4.0,75,0.00,RA,RA,0.07,237.0,WeatherDisplay:10.37,2013-06-09 19:19:00,
2013-06-09 15:24:00,75.1,67.4,30.04,North,7,0.0,6.0,77,0.00,RA,RA,0.07,188.0,WeatherDisplay:10.37,2013-06-09 19:24:00,
2013-06-09 15:29:00,74.8,67.8,30.04,WNW,301,0.0,5.0,79,0.00,RA,RA,0.07,232.0,WeatherDisplay:10.37,2013-06-09 19:29:00,
2013-06-09 15:34:00,74.4,67.4,30.04,East,95,2.0,4.0,79,0.00,RA,RA,0.07,183.0,WeatherDisplay:10.37,2013-06-09 19:34:00,
2013-06-09 15:39:00,73.7,67.5,30.04,ENE,77,0.0,5.0,81,0.00,RA,RA,0.07,113.0,WeatherDisplay:10.37,2013-06-09 19:39:00,
2013-06-09 15:44:00,73.2,67.4,30.05,East,84,2.0,10.0,82,0.00,RA,RA,0.07,42.0,WeatherDisplay:10.37,2013-06-09 19:44:00,
2013-06-09 15:49:00,72.4,67.0,30.07,North,4,9.0,13.0,83,0.06,RA,RA,0.15,21.0,WeatherDisplay:10.37,2013-06-09 19:49:00,
2013-06-09 15:54:00,69.8,64.0,30.08,SW,224,1.0,10.0,82,0.15,RA,RA,0.28,16.0,WeatherDisplay:10.37,2013-06-09 19:54:00,
2013-06-09 16:04:00,67.4,64.7,30.07,West,272,5.0,12.0,91,0.03,RA,RA,0.42,5.0,WeatherDisplay:10.37,2013-06-09 20:04:00,
2013-06-09 16:09:00,66.0,63.3,30.08,WSW,241,5.0,18.0,91,0.08,RA,RA,0.50,9.0,WeatherDisplay:10.37,2013-06-09 20:09:00,
2013-06-09 16:14:00,64.9,62.6,30.09,SW,236,7.0,15.0,92,0.03,RA,RA,0.53,11.0,WeatherDisplay:10.37,2013-06-09 20:14:00,
2013-06-09 16:19:00,64.4,62.3,30.09,SW,235,5.0,10.0,93,0.16,RA,RA,0.69,7.0,WeatherDisplay:10.37,2013-06-09 20:19:00,
2013-06-09 16:24:00,63.9,62.1,30.09,WSW,245,0.0,9.0,94,0.14,RA,RA,0.83,7.0,WeatherDisplay:10.37,2013-06-09 20:24:00,
2013-06-09 16:29:00,63.6,61.8,30.09,SW,234,5.0,12.0,94,0.05,RA,RA,0.88,9.0,WeatherDisplay:10.37,2013-06-09 20:29:00,
2013-06-09 16:34:00,63.6,62.1,30.09,SW,225,0.0,5.0,95,0.06,RA,RA,0.94,14.0,WeatherDisplay:10.37,2013-06-09 20:34:00,
2013-06-09 16:39:00,63.6,62.1,30.09,SW,219,0.0,1.0,95,0.10,RA,RA,1.04,25.0,WeatherDisplay:10.37,2013-06-09 20:39:00,
2013-06-09 16:44:00,63.8,62.6,30.09,SW,219,0.0,2.0,96,0.04,RA,RA,1.08,19.0,WeatherDisplay:10.37,2013-06-09 20:44:00,
2013-06-09 16:49:00,63.9,62.7,30.08,SW,219,0.0,1.0,96,0.02,RA,RA,1.10,21.0,WeatherDisplay:10.37,2013-06-09 20:49:00,
2013-06-09 16:59:00,64.1,63.0,30.08,SW,219,2.0,3.0,96,0.01,RA,RA,1.18,37.0,WeatherDisplay:10.37,2013-06-09 20:59:00,
2013-06-09 17:04:00,63.8,62.6,30.08,SW,219,0.0,3.0,96,0.02,RA,RA,1.20,25.0,WeatherDisplay:10.37,2013-06-09 21:04:00,
2013-06-09 17:09:00,63.6,62.4,30.08,SW,219,0.0,1.0,96,0.00,RA,RA,1.20,32.0,WeatherDisplay:10.37,2013-06-09 21:09:00,
2013-06-09 17:14:00,63.5,62.4,30.07,SW,219,0.0,2.0,96,0.00,RA,RA,1.20,90.0,WeatherDisplay:10.37,2013-06-09 21:14:00,
2013-06-09 17:19:00,63.9,62.7,30.07,NE,40,1.0,7.0,96,0.00,RA,RA,1.20,63.0,WeatherDisplay:10.37,2013-06-09 21:19:00,
2013-06-09 17:29:00,64.5,63.6,30.07,NE,43,0.0,2.0,97,0.00,RA,RA,1.20,76.0,WeatherDisplay:10.37,2013-06-09 21:29:00,
2013-06-09 17:39:00,64.8,64.0,30.07,ENE,68,0.0,4.0,97,0.00,RA,RA,1.20,123.0,WeatherDisplay:10.37,2013-06-09 21:39:00,
2013-06-09 17:44:00,65.1,64.2,30.07,East,82,0.0,2.0,97,0.00,RA,RA,1.20,97.0,WeatherDisplay:10.37,2013-06-09 21:44:00,
2013-06-09 17:49:00,65.3,64.4,30.07,East,82,0.0,2.0,97,0.00,RA,RA,1.20,53.0,WeatherDisplay:10.37,2013-06-09 21:49:00,
2013-06-09 17:59:00,65.2,64.0,30.06,East,82,0.0,2.0,96,0.00,RA,RA,1.20,21.0,WeatherDisplay:10.37,2013-06-09 21:59:00,
2013-06-09 18:09:00,65.2,64.0,30.06,East,82,1.0,3.0,96,0.00,RA,RA,1.20,21.0,WeatherDisplay:10.37,2013-06-09 22:09:00,
2013-06-09 18:14:00,65.2,64.0,30.06,East,90,1.0,6.0,96,0.00,RA,RA,1.20,44.0,WeatherDisplay:10.37,2013-06-09 22:14:00,
2013-06-09 18:24:00,65.2,64.0,30.07,ESE,122,0.0,1.0,96,0.00,RA,RA,1.20,67.0,WeatherDisplay:10.37,2013-06-09 22:24:00,
2013-06-09 18:34:00,65.5,64.3,30.06,ESE,122,0.0,1.0,96,0.00,RA,RA,1.20,53.0,WeatherDisplay:10.37,2013-06-09 22:34:00,
2013-06-09 18:44:00,65.4,63.9,30.07,ESE,122,0.0,2.0,95,0.00,RA,RA,1.20,44.0,WeatherDisplay:10.37,2013-06-09 22:44:00,
2013-06-09 18:49:00,65.5,64.0,30.07,ESE,122,0.0,1.0,95,0.00,RA,RA,1.20,42.0,WeatherDisplay:10.37,2013-06-09 22:49:00,
2013-06-09 18:59:00,65.5,64.0,30.07,ESE,122,0.0,1.0,95,0.00,RA,RA,1.20,12.0,WeatherDisplay:10.37,2013-06-09 22:59:00,
2013-06-09 19:04:00,65.5,64.1,30.06,ESE,122,0.0,0.0,95,0.01,RA,RA,1.21,7.0,WeatherDisplay:10.37,2013-06-09 23:04:00,
2013-06-09 19:09:00,65.5,64.0,30.07,ESE,122,0.0,1.0,95,0.02,RA,RA,1.23,7.0,WeatherDisplay:10.37,2013-06-09 23:09:00,
2013-06-09 19:14:00,65.4,63.9,30.07,ESE,122,0.0,0.0,95,0.01,RA,RA,1.24,7.0,WeatherDisplay:10.37,2013-06-09 23:14:00,
2013-06-09 19:19:00,65.3,63.8,30.06,ESE,122,0.0,0.0,95,0.02,RA,RA,1.26,7.0,WeatherDisplay:10.37,2013-06-09 23:19:00,
2013-06-09 19:24:00,65.2,63.7,30.07,ESE,122,0.0,2.0,95,0.00,RA,RA,1.26,5.0,WeatherDisplay:10.37,2013-06-09 23:24:00,
2013-06-09 19:34:00,65.0,63.8,30.06,ESE,122,2.0,3.0,96,0.01,RA,RA,1.27,5.0,WeatherDisplay:10.37,2013-06-09 23:34:00,
2013-06-09 19:39:00,64.9,63.7,30.06,ESE,122,0.0,3.0,96,0.02,RA,RA,1.29,7.0,WeatherDisplay:10.37,2013-06-09 23:39:00,
2013-06-09 19:44:00,64.9,63.7,30.06,ESE,122,0.0,3.0,96,0.01,RA,RA,1.30,7.0,WeatherDisplay:10.37,2013-06-09 23:44:00,
2013-06-09 19:49:00,64.8,63.6,30.06,ESE,122,0.0,2.0,96,0.01,RA,RA,1.31,9.0,WeatherDisplay:10.37,2013-06-09 23:49:00,
2013-06-09 19:59:00,64.8,63.6,30.06,ESE,122,0.0,2.0,96,0.00,RA,RA,1.32,0.0,WeatherDisplay:10.37,2013-06-09 23:59:00,
2013-06-09 20:04:00,64.8,63.6,30.06,ESE,122,0.0,2.0,96,0.02,RA,RA,1.34,0.0,WeatherDisplay:10.37,2013-06-10 00:04:00,
2013-06-09 20:09:00,64.7,63.5,30.06,East,101,0.0,5.0,96,0.06,RA,RA,1.40,0.0,WeatherDisplay:10.37,2013-06-10 00:09:00,
2013-06-09 20:19:00,64.6,63.4,30.06,East,96,0.0,2.0,96,0.02,RA,RA,1.46,0.0,WeatherDisplay:10.37,2013-06-10 00:19:00,
2013-06-09 20:24:00,64.6,63.7,30.07,SW,223,5.0,6.0,97,0.09,RA,RA,1.55,0.0,WeatherDisplay:10.37,2013-06-10 00:24:00,
2013-06-09 20:34:00,64.3,63.1,30.06,West,260,0.0,5.0,96,0.09,RA,RA,1.82,0.0,WeatherDisplay:10.37,2013-06-10 00:34:00,
2013-06-09 20:39:00,64.2,63.0,30.07,SW,234,0.0,2.0,96,0.01,RA,RA,1.83,0.0,WeatherDisplay:10.37,2013-06-10 00:39:00,
2013-06-09 20:49:00,64.2,63.3,30.06,SE,144,0.0,3.0,97,0.00,RA,RA,1.84,0.0,WeatherDisplay:10.37,2013-06-10 00:49:00,
2013-06-09 20:54:00,64.3,63.4,30.07,SE,140,0.0,4.0,97,0.00,RA,RA,1.84,0.0,WeatherDisplay:10.37,2013-06-10 00:54:00,
2013-06-09 20:59:00,64.4,63.5,30.06,SE,139,2.0,3.0,97,0.00,RA,RA,1.84,0.0,WeatherDisplay:10.37,2013-06-10 00:59:00,
2013-06-09 21:09:00,64.6,63.7,30.06,SE,139,1.0,4.0,97,0.00,RA,RA,1.84,0.0,WeatherDisplay:10.37,2013-06-10 01:09:00,
2013-06-09 21:14:00,64.8,63.6,30.06,South,186,1.0,6.0,96,0.00,RA,RA,1.84,0.0,WeatherDisplay:10.37,2013-06-10 01:14:00,
2013-06-09 21:24:00,64.8,63.6,30.06,SE,127,5.0,7.0,96,0.00,RA,RA,1.85,0.0,WeatherDisplay:10.37,2013-06-10 01:24:00,
2013-06-09 21:29:00,64.8,63.7,30.05,SSE,152,0.0,6.0,96,0.01,RA,RA,1.86,0.0,WeatherDisplay:10.37,2013-06-10 01:29:00,
2013-06-09 21:34:00,64.8,63.6,30.05,SSW,195,2.0,13.0,96,0.00,RA,RA,1.86,0.0,WeatherDisplay:10.37,2013-06-10 01:34:00,
2013-06-09 21:39:00,64.8,63.6,30.05,South,182,2.0,7.0,96,0.01,RA,RA,1.87,0.0,WeatherDisplay:10.37,2013-06-10 01:39:00,
2013-06-09 21:44:00,64.6,63.5,30.05,ENE,64,1.0,3.0,96,0.00,RA,RA,1.87,0.0,WeatherDisplay:10.37,2013-06-10 01:44:00,
2013-06-09 21:54:00,64.5,63.3,30.05,East,87,0.0,5.0,96,0.00,RA,RA,1.87,0.0,WeatherDisplay:10.37,2013-06-10 01:54:00,
2013-06-09 21:59:00,64.4,63.2,30.05,ESE,110,2.0,6.0,96,0.01,RA,RA,1.88,0.0,WeatherDisplay:10.37,2013-06-10 01:59:00,
2013-06-09 22:04:00,64.4,63.2,30.05,East,89,3.0,9.0,96,0.01,RA,RA,1.89,0.0,WeatherDisplay:10.37,2013-06-10 02:04:00,
2013-06-09 22:09:00,64.4,63.2,30.05,East,79,0.0,4.0,96,0.01,RA,RA,1.90,0.0,WeatherDisplay:10.37,2013-06-10 02:09:00,
2013-06-09 22:19:00,64.3,63.1,30.05,East,80,0.0,4.0,96,0.01,RA,RA,1.91,0.0,WeatherDisplay:10.37,2013-06-10 02:19:00,
2013-06-09 22:29:00,64.4,63.5,30.05,SE,135,3.0,13.0,97,0.01,RA,RA,1.94,0.0,WeatherDisplay:10.37,2013-06-10 02:29:00,
2013-06-09 22:34:00,64.5,63.6,30.05,East,80,2.0,9.0,97,0.02,RA,RA,1.96,0.0,WeatherDisplay:10.37,2013-06-10 02:34:00,
2013-06-09 22:39:00,64.6,63.7,30.05,ESE,107,1.0,4.0,97,0.02,RA,RA,1.98,0.0,WeatherDisplay:10.37,2013-06-10 02:39:00,
2013-06-09 22:44:00,64.7,63.8,30.06,SE,143,1.0,6.0,97,0.02,RA,RA,2.00,0.0,WeatherDisplay:10.37,2013-06-10 02:44:00,
2013-06-09 22:54:00,64.7,63.8,30.05,East,82,1.0,9.0,97,0.04,RA,RA,2.06,0.0,WeatherDisplay:10.37,2013-06-10 02:54:00,
2013-06-09 22:59:00,64.7,63.8,30.06,ENE,75,2.0,12.0,97,0.02,RA,RA,2.08,0.0,WeatherDisplay:10.37,2013-06-10 02:59:00,
2013-06-09 23:04:00,64.7,63.8,30.06,SSW,192,1.0,7.0,97,0.01,RA,RA,2.09,0.0,WeatherDisplay:10.37,2013-06-10 03:04:00,
2013-06-09 23:09:00,64.6,63.7,30.06,SW,217,2.0,10.0,97,0.02,RA,RA,2.11,0.0,WeatherDisplay:10.37,2013-06-10 03:09:00,
2013-06-09 23:19:00,64.6,63.4,30.06,WSW,243,1.0,9.0,96,0.01,RA,RA,2.13,0.0,WeatherDisplay:10.37,2013-06-10 03:19:00,
2013-06-09 23:24:00,64.6,63.5,30.05,SSW,210,0.0,7.0,96,0.00,RA,RA,2.13,0.0,WeatherDisplay:10.37,2013-06-10 03:24:00,
2013-06-09 23:29:00,64.6,63.7,30.05,NE,51,1.0,4.0,97,0.01,RA,RA,2.14,0.0,WeatherDisplay:10.37,2013-06-10 03:29:00,
2013-06-09 23:39:00,64.6,63.7,30.05,NNE,30,0.0,3.0,97,0.00,RA,RA,2.14,0.0,WeatherDisplay:10.37,2013-06-10 03:39:00,
2013-06-09 23:44:00,64.5,63.6,30.05,West,277,0.0,12.0,97,0.01,RA,RA,2.15,0.0,WeatherDisplay:10.37,2013-06-10 03:44:00,
2013-06-09 23:49:00,64.5,63.6,30.05,SSW,212,1.0,4.0,97,0.01,RA,RA,2.16,0.0,WeatherDisplay:10.37,2013-06-10 03:49:00,
2013-06-09 23:59:00,64.5,63.7,30.05,WSW,255,0.0,5.0,97,0.04,,,0.00,0.0,WeatherDisplay:10.37,2013-06-10 03:59:00,